Location: Zagreb
(45.8000°N, 16.0000°E)
Time: 12:45:48
(UTC+01:00)

Vanguard 1 Rocket - Pass Details

Date: 05 October 2020
Orbit: 656 x 4221 km, 34.3° (Epoch: 28 October)

Event Time Altitude Azimuth Distance (km) Brightness Sun altitude
Rises 14:50:49 0° 186° (S) 3,768 11.4 31.9°
Reaches altitude 10° 14:54:35 10° 162° (SSE) 3,270 10.8 31.5°
Maximum altitude 14:58:50 15° 130° (SE) 3,445 10.5 31.0°
Drops below altitude 10° 15:04:23 10° 102° (ESE) 4,526 10.8 30.4°
Sets 15:11:33 0° 83° (E) 6,393 11.3 29.5°
